Theta_e
321 320 320 321 321 321 321 320 321 322 319 320 323 322 322 323 323 319 313 319 320 323 322 316 314 311 311 306 307 305 292 288 292 293 294 299 296 300 302 298 300 301 301 304 307
320 320 319 319 319 321 321 321 322 322 321 322 320 320 322 323 316 315 323 326 324 323 317 311 305 306 301 303 302 297 291 293 298 295 294 297 296 296 296 296 297 297 302 305 306
319 319 318 319 319 320 321 321 321 321 322 320 319 319 320 322 310 312 327 326 323 323 313 309 305 302 299 299 297 296 290 297 298 298 298 295 295 297 294 291 295 295 298 301 302
318 318 318 318 318 319 318 319 320 320 320 319 318 319 321 317 300 316 322 321 321 316 311 306 302 297 295 293 297 290 296 297 297 298 296 293 296 293 294 294 298 298 298 300 299
317 317 317 317 318 318 317 317 318 319 319 319 320 318 316 304 304 318 316 315 312 309 306 304 299 297 292 293 295 291 293 296 296 296 295 296 293 293 292 296 298 299 299 297 298
317 316 316 316 317 317 316 317 318 318 318 319 321 320 310 296 310 313 311 310 310 307 305 302 297 298 294 293 291 293 293 293 294 294 294 293 292 292 293 295 295 295 295 296 297
316 315 315 315 315 316 315 316 317 317 317 319 320 317 303 299 307 305 311 305 306 304 300 301 300 297 294 292 295 293 288 290 291 292 290 292 287 288 293 293 292 292 290 294 298
315 315 314 314 314 315 314 315 316 316 316 318 319 310 298 310 307 306 306 303 305 304 303 302 302 298 294 294 292 288 287 282 287 289 290 289 281 289 292 289 288 288 290 296 298
315 314 314 313 314 313 316 314 316 315 316 318 309 306 295 308 303 303 303 301 302 302 302 304 300 294 293 286 281 284 276 279 282 289 289 286 282 288 290 288 287 290 292 295 296
315 314 313 312 314 314 315 314 315 314 312 311 309 298 300 296 301 303 302 303 298 298 296 296 292 287 287 282 273 277 276 279 279 284 286 283 283 286 288 287 287 287 289 291 293
314 313 313 312 313 314 309 306 296 297 299 292 294 294 296 298 302 298 299 299 297 293 286 291 283 280 285 285 284 282 280 279 282 286 283 281 281 284 287 286 285 286 288 289 290
313 313 312 311 311 312 303 296 295 294 292 297 297 296 299 298 293 294 298 292 291 285 287 283 280 286 287 286 284 282 280 278 282 285 283 281 280 284 285 285 287 287 285 286 288
313 312 311 311 310 303 299 298 303 302 292 295 296 295 295 296 293 291 295 291 286 284 284 280 284 290 287 283 282 280 278 278 278 282 282 280 277 280 284 286 288 287 287 286 286
312 311 310 310 303 301 297 303 303 302 285 289 291 294 296 296 292 296 294 290 287 283 284 282 287 286 283 282 283 277 284 282 281 277 270 279 269 278 282 282 286 285 284 283 285
312 310 309 309 299 296 299 301 301 297 274 290 290 297 294 291 292 292 295 290 284 285 283 281 283 283 282 283 284 280 285 281 281 277 273 276 269 274 280 278 281 283 284 283 284
311 309 308 302 299 299 301 301 297 282 272 287 292 290 289 290 291 292 291 292 291 285 285 283 288 285 284 286 285 285 281 280 279 275 263 273 273 272 276 278 281 282 281 282 283
309 307 304 303 296 300 300 295 281 276 289 286 287 290 288 287 288 288 286 284 280 275 275 281 282 285 286 280 284 281 274 264 264 262 264 276 273 273 280 282 282 281 280 281 283
310 306 304 302 300 299 295 285 275 285 284 290 289 289 285 287 285 285 283 280 284 281 274 272 273 280 284 281 277 277 276 265 262 261 267 277 270 273 279 282 282 283 282 282 282
309 299 298 300 301 298 289 278 280 284 287 286 287 282 282 285 282 283 280 281 283 283 275 269 275 284 284 284 282 276 272 279 270 271 265 270 273 279 280 282 281 281 282 283 283
296 296 297 301 300 294 283 284 283 289 289 288 279 284 278 281 280 278 280 283 283 286 284 278 268 281 284 284 282 280 281 270 265 259 263 268 269 272 276 278 281 280 280 282 284
297 290 297 301 297 289 280 282 287 290 290 286 283 282 282 280 279 278 278 284 284 285 285 281 274 276 280 277 276 276 275 275 273 271 266 265 269 276 279 281 280 280 282 282 284
297 287 298 298 286 285 283 286 289 288 289 288 286 284 282 282 278 278 279 283 286 286 280 282 273 270 274 282 283 279 274 273 269 265 266 268 271 282 281 282 283 284 284 284 284
294 294 298 295 281 281 285 287 288 287 287 287 286 287 286 282 276 279 281 288 288 285 279 281 272 264 269 274 278 275 277 273 269 267 270 266 270 282 283 282 283 283 284 284 283
291 287 291 289 290 284 283 284 284 289 286 288 286 287 283 280 283 277 280 286 288 286 290 287 276 270 267 268 267 266 268 276 274 272 272 272 273 278 280 281 283 283 284 282 281
293 289 293 286 286 284 287 287 285 285 286 287 282 284 281 272 278 278 282 283 286 289 287 283 273 274 277 278 277 277 274 274 271 274 271 274 275 279 281 282 283 284 282 282 281
289 289 288 283 287 286 287 284 285 286 285 283 281 285 284 276 280 277 280 279 278 281 277 276 273 276 275 278 277 275 276 276 276 276 275 276 276 282 284 284 283 282 283 281 281
296 295 293 288 285 285 284 287 286 289 290 290 286 282 282 284 285 285 284 284 283 277 277 274 272 269 269 275 275 271 275 276 276 277 275 272 276 279 279 281 281 282 284 282 280
Wind_Speed
16 16 17 18 18 16 15 13 11 10 7 9 8 9 9 8 8 2 4 2 2 1 5 6 2 7 5 3 2 2 2 3 4 4 6 10 10 6 6 7 9 7 11 12 17
17 18 18 18 18 17 16 14 13 9 7 9 8 9 10 8 1 10 6 6 3 3 3 4 5 7 4 3 2 4 3 6 0 3 6 10 7 8 8 12 11 13 17 19 20
17 18 19 18 18 19 18 15 13 12 11 9 8 10 8 5 2 4 9 8 6 6 6 5 5 3 3 4 3 5 4 5 8 9 9 7 9 5 6 5 11 14 15 16 18
18 19 20 19 18 18 18 16 14 12 10 10 9 8 9 2 4 1 5 7 8 8 3 2 3 2 2 0 3 3 5 5 6 6 5 7 6 6 7 14 12 12 10 10 11
18 19 20 20 19 18 18 16 13 11 10 10 8 5 3 6 4 3 2 2 4 2 1 2 2 2 1 0 4 3 5 7 7 12 9 7 10 8 8 9 13 13 13 11 11
17 18 19 20 19 18 17 15 11 10 9 10 3 4 1 6 2 6 2 6 2 3 3 1 3 3 1 2 2 4 4 9 8 11 7 7 8 2 9 10 9 12 14 14 14
18 18 20 20 20 18 18 14 10 9 9 9 6 1 11 4 1 1 3 3 4 5 4 5 4 3 3 3 4 4 6 8 4 5 7 2 5 5 10 8 12 13 10 10 14
18 18 20 21 20 18 18 11 8 8 8 8 7 3 4 2 3 5 5 3 4 4 3 2 4 3 1 3 4 2 2 3 7 7 6 2 8 7 10 9 11 7 4 7 8
17 18 19 21 18 17 18 11 7 7 7 7 4 2 2 1 2 2 3 3 4 2 1 1 1 1 1 1 4 1 2 5 8 9 5 2 9 9 11 10 5 6 7 8 10
16 17 18 20 18 18 21 6 6 6 5 5 4 4 1 2 2 2 2 3 2 2 2 1 1 1 3 4 1 3 4 4 7 7 15 9 8 9 14 5 4 4 6 6 7
14 16 17 18 18 19 9 3 6 4 7 2 2 5 3 2 2 2 2 1 2 1 2 4 2 5 8 6 1 1 5 8 11 15 5 7 8 16 17 7 3 5 7 5 5
14 15 16 17 15 18 5 6 2 3 2 1 1 4 3 1 1 2 2 1 2 4 3 3 5 4 3 1 3 5 7 9 8 5 9 10 16 17 10 5 5 6 5 4 5
13 14 16 16 12 4 9 5 3 1 1 1 1 2 3 2 3 4 4 3 3 4 6 4 5 6 2 2 5 5 7 5 7 7 5 10 9 5 10 5 4 5 4 2 2
10 13 16 17 3 2 4 3 4 2 4 0 1 1 1 1 3 3 3 2 4 3 4 5 2 2 1 3 4 5 4 7 10 10 3 6 8 10 17 2 5 5 5 3 4
8 10 15 11 2 4 3 4 3 2 5 2 2 2 1 2 2 1 1 2 3 4 5 8 4 2 3 3 3 7 4 7 9 12 6 9 2 8 7 1 4 7 4 2 3
5 9 12 4 3 1 4 4 2 7 2 0 3 1 2 6 3 5 3 1 4 3 4 8 6 3 6 2 2 9 6 11 10 3 2 6 2 5 2 4 5 2 5 3 5
2 6 4 2 2 3 3 2 6 7 2 1 1 2 3 3 3 5 4 4 3 3 3 6 4 2 4 2 5 9 7 6 8 5 7 6 6 10 11 7 4 7 4 5 6
1 2 4 2 2 3 3 5 7 4 2 1 2 4 4 1 3 4 4 4 4 5 2 3 8 1 1 3 1 3 6 6 6 4 7 12 7 7 2 8 2 2 1 4 6
2 1 1 2 1 3 5 6 7 4 1 5 7 2 1 2 1 3 2 4 1 3 6 3 6 3 1 2 7 2 1 6 3 4 3 5 7 10 6 12 6 8 8 8 8
1 0 1 2 2 3 5 4 4 3 1 1 1 2 2 3 2 3 3 4 3 3 4 0 5 4 5 1 4 7 4 4 4 4 6 5 5 8 8 9 12 10 6 7 6
2 3 2 2 3 4 4 4 4 4 3 3 2 4 3 3 3 3 5 5 2 3 6 3 5 7 4 5 6 2 2 1 3 4 4 6 5 4 12 17 14 9 6 7 5
1 1 3 3 4 1 2 1 0 2 2 1 2 3 4 3 3 3 6 5 3 4 4 5 5 4 11 13 2 3 7 5 4 8 5 3 19 16 10 13 12 8 8 11 3
3 2 2 4 3 2 2 2 2 4 3 5 4 6 3 3 2 5 4 3 6 4 4 3 1 4 10 6 6 2 4 4 1 2 17 7 11 11 17 15 13 14 15 8 4
3 1 0 3 2 3 4 3 2 3 2 3 3 3 2 4 6 5 3 3 7 7 9 5 5 9 9 8 5 2 4 6 7 8 16 18 24 18 17 17 15 15 15 6 1
2 5 1 4 5 3 2 5 5 4 3 4 3 7 6 3 2 6 5 6 4 6 5 5 6 7 14 14 12 14 16 13 14 20 16 26 23 23 20 19 17 16 8 4 3
6 5 1 2 3 6 5 7 9 4 8 5 7 6 10 8 11 7 5 2 8 3 5 1 8 7 11 10 13 18 24 21 20 21 19 22 24 16 16 15 13 8 3 1 2
2 1 4 6 5 5 7 9 12 10 9 7 10 4 7 13 5 5 5 5 6 6 4 2 2 3 8 8 8 12 16 14 7 10 9 11 8 5 8 10 8 9 7 5 2
Wind_Direction
6 2 360 357 355 351 347 346 340 329 334 328 336 0 350 347 319 160 61 353 111 334 342 294 269 4 332 266 135 75 28 252 257 27 294 359 359 343 343 333 335 324 313 304 312
8 3 1 359 359 359 360 358 343 351 348 347 4 352 350 348 261 60 351 117 61 357 341 42 16 351 341 305 40 116 189 232 43 3 331 334 353 331 350 327 312 317 309 311 314
7 3 2 0 0 359 359 358 354 358 354 8 345 337 339 326 162 59 55 54 18 330 39 63 41 19 337 18 355 320 214 319 314 335 356 341 322 320 303 278 280 283 291 295 294
6 3 1 358 356 356 352 348 353 352 350 344 335 340 327 241 83 147 35 16 8 4 58 96 24 2 209 294 321 1 294 308 312 326 324 298 296 293 255 262 271 272 273 283 286
6 2 360 357 354 351 349 344 339 345 347 337 318 340 1 70 67 193 271 279 304 331 17 190 209 282 211 190 352 269 284 281 294 296 283 279 269 260 266 288 301 297 295 282 278
2 359 357 357 353 347 347 344 343 342 350 351 20 4 59 87 228 159 281 315 322 322 186 92 2 318 328 309 241 346 320 294 288 275 251 248 263 250 290 286 293 291 286 278 273
359 357 354 355 352 344 343 345 354 345 348 356 16 256 57 116 2 327 200 62 13 31 9 38 12 25 4 321 348 337 315 315 261 266 223 56 310 266 272 296 289 292 313 343 8
358 358 353 350 350 342 337 337 343 333 331 331 331 354 88 287 320 26 3 126 75 41 49 24 11 330 129 323 307 205 165 315 325 360 295 42 280 287 284 297 297 311 44 26 11
357 356 353 348 345 339 333 321 320 321 299 289 323 119 86 324 59 337 7 26 112 159 175 33 30 241 116 70 343 163 257 312 326 320 300 331 284 275 286 302 282 47 30 18 3
354 353 352 350 341 339 329 276 297 326 285 265 267 40 331 93 79 351 72 352 314 156 304 214 220 39 321 84 234 297 313 289 277 289 307 285 288 292 292 285 203 103 77 39 10
352 349 351 349 343 342 342 34 17 15 24 73 20 101 65 64 108 237 109 281 294 311 251 207 82 238 261 212 208 301 278 274 280 286 303 286 291 299 295 271 195 80 56 19 8
352 345 348 345 347 345 29 70 152 208 359 44 50 96 77 54 296 153 56 117 204 257 265 318 253 219 151 11 315 280 280 285 290 316 331 308 295 281 288 257 191 118 77 33 341
350 345 340 341 332 39 77 93 294 332 137 117 52 41 123 47 316 192 138 308 260 292 299 214 252 185 151 347 318 290 277 287 301 321 280 309 286 258 292 247 142 126 143 187 266
352 344 338 336 27 157 57 3 342 344 86 303 213 121 152 241 329 112 160 90 317 273 319 284 251 109 311 281 278 297 311 335 326 339 295 53 283 332 295 5 166 171 207 170 21
351 344 338 345 282 43 312 335 290 62 53 224 141 185 229 176 246 213 84 114 235 301 71 263 312 345 303 245 9 247 334 303 292 282 332 295 253 265 287 8 180 219 164 102 351
354 339 343 35 49 324 337 330 50 45 290 229 134 192 227 191 221 148 173 175 249 292 235 241 263 256 211 25 296 270 328 308 284 205 9 279 243 275 299 266 201 209 60 22 347
8 336 3 308 173 304 350 48 34 94 228 183 263 199 318 230 232 175 186 190 210 3 341 315 286 88 104 41 8 52 43 327 352 8 219 348 356 252 297 277 19 63 17 345 339
289 325 277 114 326 1 59 50 73 262 4 203 248 276 236 75 30 359 311 288 266 163 57 95 334 13 120 144 162 289 151 154 265 270 276 313 241 252 47 60 68 131 298 321 319
346 309 217 228 333 46 81 51 188 213 296 344 316 208 300 63 93 18 267 254 253 105 160 94 270 345 158 304 126 272 246 209 261 284 7 252 292 313 29 6 17 341 2 351 344
46 289 137 251 50 69 75 178 148 105 93 207 284 331 274 174 173 60 270 281 125 94 111 196 324 276 307 107 265 165 192 23 3 328 287 274 274 249 336 318 338 320 332 322 330
66 29 265 343 69 52 142 194 131 131 146 157 261 304 317 304 139 170 248 296 92 111 89 126 132 289 21 213 203 15 243 116 146 176 250 291 236 224 334 321 314 318 314 311 338
112 14 272 46 56 110 194 152 282 154 137 137 124 219 223 308 268 228 236 213 82 115 172 210 167 230 231 254 277 161 197 147 155 278 223 254 280 266 272 308 310 330 321 307 306
173 211 312 93 163 229 263 179 199 164 186 177 224 207 167 187 289 212 247 184 143 139 173 177 268 344 326 3 7 128 200 168 170 102 255 248 256 308 312 299 300 318 312 301 317
105 211 323 47 237 177 157 195 180 209 246 235 227 227 143 234 206 249 239 265 177 180 201 175 213 178 218 217 156 279 256 238 217 252 282 251 282 289 289 297 302 302 302 267 286
134 224 212 180 233 168 121 152 171 227 214 211 289 205 177 223 241 235 254 257 274 251 234 182 237 216 246 267 270 274 266 253 231 251 249 283 279 282 288 290 289 288 274 275 23
148 156 20 169 114 123 180 203 202 178 170 226 221 201 199 194 198 202 204 183 231 307 167 302 269 267 273 258 257 268 266 269 260 258 255 261 271 276 281 286 285 273 213 246 19
144 54 134 158 158 157 202 191 205 156 233 228 208 193 239 240 222 237 206 204 223 170 189 177 149 25 282 262 304 276 252 252 250 254 231 257 259 286 302 306 297 277 250 157 89